Location: Irma
(52.9170°N, 111.2330°W)
Time: 18:31:46
(UTC-06:00)

Cosmos 1633 Rocket - Visible Passes

Search period start: 27 March 2015 00:00
Search period end: 06 April 2015 00:00
Orbit: 609 x 624 km, 82.5° (Epoch: 27 March)

Date Brightness Start Highest point End Pass type
(mag) Time Alt. Az. Time Alt. Az. Time Alt. Az.
27 Mar 4.5 21:07:27 10° NNW 21:11:35 41° W 21:15:41 10° SSW visible
28 Mar 5.4 21:24:24 10° NNW 21:28:03 25° W 21:31:35 10° SW visible
29 Mar 6.0 21:41:43 10° NW 21:44:26 16° W 21:47:00 10° WSW visible
31 Mar 4.6 20:36:05 10° NNW 20:40:14 41° W 20:44:19 10° SSW visible
01 Apr 5.6 20:53:02 10° NNW 20:56:41 26° W 21:00:15 10° SW visible
02 Apr 6.1 21:10:19 10° NW 21:13:04 16° W 21:15:40 10° WSW visible
